EDT,Max TemperatureF,Mean TemperatureF,Min TemperatureF,Max Dew PointF,MeanDew PointF,Min DewpointF,Max Humidity, Mean Humidity, Min Humidity, Max Sea Level PressureIn, Mean Sea Level PressureIn, Min Sea Level PressureIn, Max VisibilityMiles, Mean VisibilityMiles, Min VisibilityMiles, Max Wind SpeedMPH, Mean Wind SpeedMPH, Max Gust SpeedMPH,PrecipitationIn, CloudCover, Events, WindDirDegrees
2012-5-1,33,28,23,34,27,16,100,95,59,,,,15,1,0,38,28,40,0.16,8,Fog-Rain-Snow,228
2012-5-2,39,36,32,37,34,30,100,96,75,,,,0,0,0,31,20,,0.05,6,Fog,278
2012-5-3,50,42,35,48,42,36,100,92,81,,,,1,0,0,28,17,,0.02,7,Fog,287
2012-5-4,44,42,41,45,43,39,100,99,81,,,,0,0,0,40,27,48,0.99,8,Fog-Rain,285
2012-5-5,41,37,33,41,28,-9,100,74,13,,,,0,0,0,33,21,40,0.26,3,Fog-Rain,316
2012-5-6,39,34,28,32,24,12,100,73,44,,,,0,0,0,24,16,29,0.00,4,Fog,308
2012-5-7,46,38,30,34,20,0,100,53,27,,,,0,0,0,30,9,21,0.00,2,Fog,237
2012-5-8,37,32,28,37,33,28,100,100,100,,,,0,0,0,53,39,60,0.38,,Fog-Rain-Snow,219
2012-5-9,44,42,39,45,42,39,100,100,93,,,,20,1,0,32,26,37,0.01,8,Fog,257
2012-5-10,37,32,24,37,31,25,100,100,100,,,,0,0,0,44,26,51,0.20,,Fog-Rain-Snow,310
2012-5-11,28,24,21,27,23,19,100,93,74,,,,0,0,0,67,49,74,0.00,7,Fog-Snow,307
2012-5-12,44,34,24,34,25,16,80,68,49,,,,,,,68,50,76,0.00,3,,315
2012-5-13,50,44,39,45,38,32,100,79,58,,,,0,0,0,36,29,36,0.11,7,Fog-Rain,270
2012-5-14,42,40,39,43,41,39,100,99,93,,,,10,1,0,36,25,40,0.19,7,Fog-Rain,235
2012-5-15,42,42,41,43,42,41,100,100,100,,,,0,0,0,39,28,46,1.08,,Fog-Rain,207
2012-5-16,51,46,41,46,42,30,100,89,53,,,,20,7,0,40,21,46,0.38,7,Fog-Rain-Thunderstorm,267
2012-5-17,41,32,24,41,27,23,100,91,75,,,,0,0,0,66,50,72,0.00,4,Fog-Rain,304
2012-5-18,46,36,26,30,23,16,93,59,39,,,,,,,44,23,31,0.00,1,,315
2012-5-19,53,46,39,39,35,25,81,63,51,,,,,,,34,23,25,0.00,2,,331
2012-5-20,59,54,48,45,41,36,72,62,55,,,,,,,26,13,17,0.00,2,,82
2012-5-21,51,48,46,46,39,32,100,72,50,,,,0,0,0,34,26,43,0.03,4,Fog-Rain,168
2012-5-22,48,46,44,48,46,45,100,99,93,,,,10,1,0,28,18,34,0.04,8,Fog-Rain,188
2012-5-23,51,48,44,50,46,45,100,95,76,,,,7,1,0,20,11,,0.02,5,Fog,331
2012-5-24,53,48,44,52,48,43,100,99,87,,,,0,0,0,28,15,28,0.01,6,Fog,213
2012-5-25,50,47,44,50,47,45,100,100,100,,,,0,0,0,53,30,56,0.04,6,Fog-Rain,237
2012-5-26,51,46,40,52,45,37,100,90,62,,,,20,5,0,62,48,69,0.00,3,Fog,302
2012-5-27,50,46,41,41,36,32,93,74,54,,,,12,12,12,45,32,51,0.14,6,Rain,303
2012-5-28,53,46,39,54,45,39,100,92,71,,,,20,7,0,43,28,56,0.01,8,Fog-Rain,280
2012-5-29,60,54,48,57,52,48,100,98,88,,,,15,2,0,46,35,52,2.37,8,Fog-Rain-Hail-Thunderstorm,268
2012-5-30,50,46,42,48,44,30,100,90,57,,,,0,0,0,54,42,64,0.19,7,Fog-Rain,285
2012-5-31,46,40,33,45,39,34,100,95,76,,,,5,0,0,34,25,38,0.00,4,Fog,312